Regional Weather Roundup
Issued by NWS

Home | Current Version | Previous Version | Text Only | Print | Product List | Glossary On
Versions: 1 2 3 4 5 6 7 8 9 10 11 12 13 14 15 16 17 18 19 20 21 22 23 24 25 26 27 28
000
ASUS45 KPSR 251110
RWRAZ

ARIZONA HOURLY REGIONAL WEATHER ROUNDUP
NATIONAL WEATHER SERVICE PHOENIX AZ
400 AM MST TUE JUL 25 2017

NOTE: FAIR INDICATES FEW OR NO CLOUDS BELOW 12,000 FEET WITH NO
SIGNIFICANT WEATHER AND/OR OBSTRUCTIONS TO VISIBILITY.

AZZ001>003-036-251200-
NORTHWEST ARIZONA

CITY           SKY/WX    TMP DP  RH WIND       PRES   REMARKS
KINGMAN        PTCLDY    71  65  81 SE7       30.04S
$$

AZZ004>008-015-016-018-251200-
NORTH CENTRAL ARIZONA

CITY           SKY/WX    TMP DP  RH WIND       PRES   REMARKS
GRAND CANYON   CLOUDY    62  61  96 SW9       30.25R
WILLIAMS       PTCLDY    59  55  88 S8        30.25F
PRESCOTT       CLOUDY    65  65 100 E5        30.17R
FLAGSTAFF      CLOUDY    59  59 100 W6        30.28S
PAYSON         CLOUDY    66  64  94 VRB5      30.22R
PAGE           CLOUDY    72  64  76 NW9       30.07R
$$

AZZ009>014-017-251200-
NORTHEAST ARIZONA

CITY           SKY/WX    TMP DP  RH WIND       PRES   REMARKS
WINSLOW        PTCLDY    64  63  96 E7        30.16S
SAINT JOHNS    CLOUDY    64  63  96 CALM      30.22R
WINDOW ROCK    CLOUDY    62  59  90 CALM      30.28S
SHOW LOW       LGT RAIN  57  55  94 S7        30.29R
$$

AZZ540-542>544-546-548-251200-
GREATER PHOENIX AREA

CITY           SKY/WX    TMP DP  RH WIND       PRES   REMARKS
PHOENIX        MOCLDY    83  76  79 E7        29.89S
BUCKEYE        CLOUDY    82  75  78 CALM      29.89S
LUKE AFB       MOCLDY    82  74  76 N3        29.89S
DEER VALLEY    MOCLDY    81  74  79 E5        29.92S
SCOTTSDALE     MOCLDY    81  75  82 CALM      29.94S
MESA-GATEWAY   CLOUDY    79  75  89 CALM      29.94R
$$

AZZ539-553-251200-
SOUTHWEST MARICOPA COUNTY AND PINAL COUNTY

CITY           SKY/WX    TMP DP  RH WIND       PRES   REMARKS
CASA GRANDE    CLOUDY    80  73  79 NE5       29.94S
GILA BEND      CLOUDY    81  78  89 CALM      29.86S
$$

AZZ503-504-507>509-251200-
SOUTHEAST ARIZONA

CITY           SKY/WX    TMP DP  RH WIND       PRES   REMARKS
TUCSON         MOCLDY    76  69  79 SE8       30.03S
DAVIS-MONTHAN  PTCLDY    74  71  91 SE7       30.02S
NOGALES        PTCLDY    67  66  97 CALM      30.12R
SIERRA VISTA   MOCLDY    67  64  91 S3        30.18S
DOUGLAS        CLEAR     66  65  96 N6        30.13S
$$

AZZ532-251200-
SOUTHWEST ARIZONA

CITY           SKY/WX    TMP DP  RH WIND       PRES   REMARKS
YUMA           CLEAR     85  60  42 SE6       29.80F
$$

CAZ041-043-047-048-061-525>527-560>570-251200-
SOUTHERN CALIFORNIA

CITY           SKY/WX    TMP DP  RH WIND       PRES   REMARKS
DOWNTOWN L.A.  CLOUDY    70  64  81 CALM      29.93F
L.A. AIRPORT   MOCLDY    68  65  90 W7        29.93F
SAN DIEGO      MOCLDY    70  63  78 W6        29.95S
BURBANK        MOCLDY    67  61  81 CALM      29.94F
ONTARIO        CLOUDY    67  63  87 SW7G14    29.95S
RIVERSIDE      CLOUDY    68  64  87 W6        29.95S
PALM SPRINGS   PTCLDY    83  61  47 S3        29.84S
EL CENTRO NAS  CLOUDY    84  68  58 CALM      29.80S
IMPERIAL       CLOUDY    85  71  63 CALM      29.78R
BLYTHE         PTCLDY    87  74  64 SE5       29.82S
NEEDLES        MOCLDY    90  68  48 S6        29.86R
$$

NVZ020-UTZ003-251200-
SOUTHERN NEVADA-UTAH

CITY           SKY/WX    TMP DP  RH WIND       PRES   REMARKS
LAS VEGAS      CLOUDY    78  69  73 N17       29.93R
SALT LAKE CITY CLOUDY    72  63  73 SE9       30.07R
$$

NMZ009-TXZ055-251200-
NEW MEXICO-WEST TEXAS

CITY           SKY/WX    TMP DP  RH WIND       PRES   REMARKS
ALBUQUERQUE    PTCLDY    73  58  59 S5        30.19R
EL PASO        PTCLDY    72  65  78 S7        30.10R
$$


........................KEY........................
SKY/WX - SKY CONDITION/WEATHER
TMP    - TEMPERATURE IN FAHRENHEIT
DP     - DEW POINT IN FAHRENHEIT
RH     - RELATIVE HUMIDITY IN PERCENT
WIND   - DIRECTION AND SPEED IN MILES PER HOUR (MPH)
VRB    - VARIABLE WIND DIRECTION
PRES   - MEAN SEA LEVEL PRESSURE IN INCHES OF MERCURY
         F - FALLING PRESSURE   R - RISING PRESSURE
         S - STEADY PRESSURE
VSB    - VISIBILITY IN MILES
HX     - HEAT INDEX IN FAHRENHEIT
WCI    - WIND CHILL INDEX IN FAHRENHEIT
TC     - TEMPERATURE IN CELSIUS WHICH IS ALSO KNOWN AS
         TEMPERATURE IN CENTIGRADE
AFB    - AIR FORCE BASE
         LUKE AFB IS LUKE AIR FORCE BASE
         DAVIS-MONTHAN IS DAVIS-MONTHAN AIR FORCE BASE
NAS    - NAVAL AIR STATION
         EL CENTRO NAS IS EL CENTRO NAVAL AIR STATION
N/A    - NOT AVAILABLE





USA.gov is the U.S. government's official web portal to all federal, state and local government web resources and services.